Location: Unspecified
(54.1780°N, 0.0000°E)
Time: 02:39:08
(UTC+00:00)

Tiros 1 - Pass Details

Date: 27 June 2019
Orbit: 630 x 664 km, 48.4° (Epoch: 14 October)

Event Time Altitude Azimuth Distance (km) Brightness Sun altitude
Rises 22:34:46 0° 237° (WSW) 2,958 10.4 -10.2°
Reaches altitude 10° 22:37:16 10° 228° (SW) 2,043 9.5 -10.3°
Maximum altitude 22:41:30 34° 164° (SSE) 1,063 7.7 -10.5°
Drops below altitude 10° 22:45:42 10° 100° (E) 2,027 9.4 -10.7°
Sets 22:48:10 0° 91° (E) 2,932 10.3 -10.9°
